KC2EXG-9 Weather Reports


time (UTC)temp
F
wind
direction
speed
knots
gust
knots
rain 1hr
in
rain 24hr
in
rain mn
in
humidity
%
barometer
mb
20260505035016 63 180 3.5 4.3 0.00 0.00 0.00 64 1003.8
20260505034016 63 203 1.7 2.6 0.00 0.00 0.00 63 1003.8
20260505033017 64 225 0.9 2.6 0.00 0.00 0.00 59 1003.9
20260505032017 61 180 1.7 2.6 0.00 0.00 0.00 60 1004.0
20260505031017 57 203 2.6 8.7 0.00 0.00 0.00 71 1003.6
20260505030016 57 0.0 0.0 0.00 0.00 0.00 70 1003.5
20260505025016 57 0.0 0.0 0.00 0.00 0.00 70 1003.5
20260505024017 56 0.0 0.0 0.00 0.00 0.00 70 1003.4
20260505023016 56 0.0 0.0 0.00 0.00 0.00 68 1003.4
20260505022036 57 0.0 0.0 0.00 0.00 0.00 67 1003.5
20260505021016 57 0.0 0.0 0.00 0.00 0.00 66 1003.6
20260505020016 57 0.0 0.0 0.00 0.00 0.00 66 1003.7
20260505015016 58 0.0 0.0 0.00 0.00 0.00 65 1003.8
20260505014016 58 0.0 0.0 0.00 0.00 0.00 64 1003.8
20260505013016 59 0.0 0.0 0.00 0.00 0.00 62 1003.7
20260505012036 60 0.0 0.0 0.00 0.00 0.00 60 1003.6
20260505011016 60 0.0 0.0 0.00 0.00 0.00 59 1003.5
20260505010016 61 0.0 0.0 0.00 0.00 0.00 58 1003.4
20260505005016 62 0.0 0.0 0.00 0.00 0.00 56 1003.5
20260505004016 63 0.0 0.0 0.00 0.00 0.00 54 1003.4
20260505003016 64 0.0 0.0 0.00 0.00 0.00 51 1003.5
20260505002016 66 0.0 0.0 0.00 0.00 0.00 49 1003.5
20260505001016 67 0.0 0.0 0.00 0.00 0.00 45 1003.7
20260505000036 69 0.0 0.0 0.00 0.00 0.00 43 1003.6
20260504235016 70 0.0 0.0 0.00 0.00 0.00 42 1003.5
20260504234016 70 0.0 0.0 0.00 0.00 0.00 41 1003.5
20260504233036 71 338 0.9 2.6 0.00 0.00 0.00 40 1003.4
20260504232016 72 225 2.6 4.3 0.00 0.00 0.00 38 1003.4
20260504231016 73 203 0.9 1.7 0.00 0.00 0.00 36 1003.3
20260504230016 73 225 0.9 1.7 0.00 0.00 0.00 36 1003.4
20260504225016 73 203 0.9 1.7 0.00 0.00 0.00 36 1003.3
20260504224016 73 203 4.3 7.0 0.00 0.00 0.00 35 1003.2
20260504223016 74 203 2.6 4.3 0.00 0.00 0.00 34 1003.3
20260504222016 74 225 2.6 6.1 0.00 0.00 0.00 34 1003.2
20260504221016 74 203 0.9 0.9 0.00 0.00 0.00 35 1003.3
20260504220016 74 203 2.6 4.3 0.00 0.00 0.00 34 1003.3
20260504215016 75 225 3.5 7.8 0.00 0.00 0.00 35 1003.4
20260504214016 75 180 4.3 5.2 0.00 0.00 0.00 35 1003.4
20260504213015 75 180 4.3 6.1 0.00 0.00 0.00 36 1003.5
20260504212036 75 180 5.2 8.7 0.00 0.00 0.00 34 1003.6
20260504211016 75 225 3.5 5.2 0.00 0.00 0.00 37 1003.5
20260504210036 75 225 2.6 6.1 0.00 0.00 0.00 37 1003.7
20260504205016 75 225 4.3 10.4 0.00 0.00 0.00 36 1003.7
20260504204035 74 203 4.3 5.2 0.00 0.00 0.00 36 1003.9
20260504203036 75 225 1.7 4.3 0.00 0.00 0.00 36 1003.9
20260504202015 75 203 2.6 7.0 0.00 0.00 0.00 37 1004.0
20260504201015 76 203 6.1 13.0 0.00 0.00 0.00 35 1004.1
20260504200015 75 248 3.5 6.1 0.00 0.00 0.00 36 1004.2
20260504195016 76 248 5.2 8.7 0.00 0.00 0.00 40 1004.4
20260504194015 76 293 1.7 5.2 0.00 0.00 0.00 38 1004.4
20260504193016 75 270 1.7 4.3 0.00 0.00 0.00 38 1004.6
20260504192015 75 338 2.6 3.5 0.00 0.00 0.00 36 1004.8
20260504191015 76 225 3.5 7.8 0.00 0.00 0.00 35 1004.9
20260504190016 75 203 5.2 9.6 0.00 0.00 0.00 36 1005.0
20260504185015 74 203 2.6 5.2 0.00 0.00 0.00 39 1005.0
20260504184035 75 225 2.6 6.1 0.00 0.00 0.00 42 1005.2
20260504183016 74 203 6.1 10.4 0.00 0.00 0.00 39 1005.4
20260504182035 74 270 3.5 7.0 0.00 0.00 0.00 42 1005.5
20260504181035 73 315 3.5 8.7 0.00 0.00 0.00 41 1005.5
20260504180016 72 203 2.6 4.3 0.00 0.00 0.00 44 1005.6
20260504175016 74 270 1.7 3.5 0.00 0.00 0.00 48 1005.7
20260504174015 73 293 3.5 6.1 0.00 0.00 0.00 44 1005.8
20260504173015 73 225 2.6 3.5 0.00 0.00 0.00 46 1005.9
20260504172015 72 293 3.5 6.1 0.00 0.00 0.00 50 1005.8
20260504171015 73 135 0.9 1.7 0.00 0.00 0.00 46 1005.9
20260504151015 67 225 2.6 7.0 0.00 0.00 0.00 49 1006.9
20260504141017 63 180 4.3 7.8 0.00 0.00 0.00 52 1006.8
20260504081016 50 180 1.7 2.6 0.00 0.00 0.00 62 1008.4
20260504050015 50 180 0.9 2.6 0.00 0.00 0.00 62 1009.4
20260504045035 50 203 0.9 0.9 0.00 0.00 0.00 61 1009.4
20260504044036 51 0.0 0.0 0.00 0.00 0.00 60 1009.4
20260504043015 52 180 0.9 1.7 0.00 0.00 0.00 59 1009.4
20260504042015 52 180 1.7 3.5 0.00 0.00 0.00 57 1009.4
20260504041015 53 203 1.7 2.6 0.00 0.00 0.00 56 1009.4
20260504040015 54 225 1.7 2.6 0.00 0.00 0.00 54 1009.4